Location: Champs
(48.8539°N, 2.6040°E)
Time: 12:52:43
(UTC+00:00)

ATLAS 2AS CENTAUR R/B - Pass Details

Date: 26 October 2021
Orbit: 958 x 1254 km, 63.7° (Epoch: 01 December)

Event Time Altitude Azimuth Distance (km) Brightness Sun altitude
Exits shadow 04:06:05 14° 322° (NW) 2,836 4.6 -23.7°
Maximum altitude 04:11:14 28° 14° (NNE) 2,026 4.3 -22.9°
Drops below altitude 10° 04:17:15 10° 71° (ENE) 2,978 6.1 -21.9°
Sets 04:20:19 0° 83° (E) 3,884 7.2 -21.4°
